| time (UTC) | temp C | wind direction | speed KPH | gust KPH | rain 1hr cm | rain 24hr cm | rain mn cm | humidity % | barometer mb |
| 20260502163403 | 20 | 259 | 8.0 | 16.1 | 0.00 | 0.00 | 0.00 | 68 | 1013.5 |
| 20260502162903 | 20 | 269 | 8.0 | 16.1 | 0.00 | 0.00 | 0.00 | 68 | 1013.5 |
| 20260502162403 | 20 | 264 | 8.0 | 17.7 | 0.00 | 0.00 | 0.00 | 66 | 1013.6 |
| 20260502161904 | 20 | 245 | 8.0 | 17.7 | 0.00 | 0.00 | 0.00 | 65 | 1013.6 |
| 20260502161403 | 20 | 279 | 8.0 | 16.1 | 0.00 | 0.00 | 0.00 | 66 | 1013.7 |
| 20260502160902 | 20 | 299 | 4.8 | 14.5 | 0.00 | 0.00 | 0.00 | 64 | 1013.7 |
| 20260502160402 | 20 | 276 | 6.4 | 16.1 | 0.00 | 0.00 | 0.00 | 66 | 1013.8 |
| 20260502151856 | 20 | 290 | 9.7 | 17.7 | 0.00 | 0.00 | 0.00 | 63 | 1014.2 |
| 20260502151356 | 20 | 244 | 11.3 | 17.7 | 0.00 | 0.00 | 0.00 | 63 | 1014.2 |
| 20260502150856 | 20 | 268 | 8.0 | 17.7 | 0.00 | 0.00 | 0.00 | 65 | 1014.2 |
| 20260502150356 | 20 | 289 | 11.3 | 17.7 | 0.00 | 0.00 | 0.00 | 63 | 1014.3 |
| 20260502130334 | 22 | 278 | 16.1 | 22.5 | 0.00 | 0.00 | 0.00 | 47 | 1014.7 |
| 20260502123331 | 23 | 240 | 17.7 | 25.7 | 0.00 | 0.00 | 0.00 | 35 | 1014.6 |
| 20260502122829 | 23 | 241 | 14.5 | 30.6 | 0.00 | 0.00 | 0.00 | 37 | 1014.7 |
| 20260502122329 | 23 | 227 | 20.9 | 30.6 | 0.00 | 0.00 | 0.00 | 39 | 1014.7 |
| 20260502121830 | 23 | 279 | 16.1 | 22.5 | 0.00 | 0.00 | 0.00 | 36 | 1014.7 |
| 20260502121330 | 23 | 209 | 11.3 | 29.0 | 0.00 | 0.00 | 0.00 | 34 | 1014.7 |
| 20260502120829 | 24 | 228 | 17.7 | 35.4 | 0.00 | 0.00 | 0.00 | 35 | 1014.7 |
| 20260502120330 | 23 | 219 | 19.3 | 35.4 | 0.00 | 0.00 | 0.00 | 31 | 1014.8 |
| 20260502115830 | 23 | 188 | 20.9 | 25.7 | 0.00 | 0.00 | 0.00 | 36 | 1014.9 |
| 20260502115330 | 22 | 185 | 14.5 | 27.4 | 0.00 | 0.00 | 0.00 | 37 | 1014.8 |
| 20260502114830 | 22 | 200 | 17.7 | 32.2 | 0.00 | 0.00 | 0.00 | 39 | 1015.0 |
| 20260502114330 | 22 | 199 | 24.1 | 33.8 | 0.00 | 0.00 | 0.00 | 36 | 1015.0 |
| 20260502113831 | 23 | 227 | 14.5 | 33.8 | 0.00 | 0.00 | 0.00 | 34 | 1015.1 |
| 20260502113331 | 23 | 204 | 22.5 | 32.2 | 0.00 | 0.00 | 0.00 | 35 | 1015.1 |
| 20260502112830 | 23 | 212 | 17.7 | 32.2 | 0.00 | 0.00 | 0.00 | 35 | 1015.2 |
| 20260502112330 | 23 | 203 | 24.1 | 32.2 | 0.00 | 0.00 | 0.00 | 34 | 1015.3 |
| 20260502111830 | 23 | 223 | 24.1 | 30.6 | 0.00 | 0.00 | 0.00 | 38 | 1015.4 |
| 20260502111331 | 22 | 221 | 22.5 | 32.2 | 0.00 | 0.00 | 0.00 | 36 | 1015.3 |
| 20260502110830 | 22 | 216 | 20.9 | 32.2 | 0.00 | 0.00 | 0.00 | 35 | 1015.4 |
| 20260502110330 | 23 | 180 | 20.9 | 35.4 | 0.00 | 0.00 | 0.00 | 36 | 1015.4 |
| 20260502105830 | 23 | 210 | 20.9 | 37.0 | 0.00 | 0.00 | 0.00 | 35 | 1015.3 |
| 20260502105330 | 23 | 195 | 25.7 | 37.0 | 0.00 | 0.00 | 0.00 | 35 | 1015.4 |
| 20260502104830 | 23 | 193 | 17.7 | 35.4 | 0.00 | 0.00 | 0.00 | 38 | 1015.4 |
| 20260502104331 | 23 | 221 | 27.4 | 35.4 | 0.00 | 0.00 | 0.00 | 36 | 1015.3 |
| 20260502103831 | 23 | 214 | 20.9 | 37.0 | 0.00 | 0.00 | 0.00 | 37 | 1015.4 |
| 20260502103330 | 23 | 204 | 22.5 | 37.0 | 0.00 | 0.00 | 0.00 | 39 | 1015.4 |
| 20260502102830 | 23 | 196 | 20.9 | 33.8 | 0.00 | 0.00 | 0.00 | 35 | 1015.5 |
| 20260502102330 | 23 | 217 | 25.7 | 33.8 | 0.00 | 0.00 | 0.00 | 36 | 1015.5 |
| 20260502101830 | 23 | 210 | 22.5 | 32.2 | 0.00 | 0.00 | 0.00 | 38 | 1015.4 |
| 20260502101330 | 23 | 217 | 20.9 | 30.6 | 0.00 | 0.00 | 0.00 | 40 | 1015.6 |
| 20260502100830 | 23 | 217 | 20.9 | 30.6 | 0.00 | 0.00 | 0.00 | 41 | 1015.7 |
| 20260502100330 | 23 | 196 | 19.3 | 35.4 | 0.00 | 0.00 | 0.00 | 38 | 1015.7 |
| 20260502091330 | 21 | 210 | 19.3 | 24.1 | 0.00 | 0.00 | 0.00 | 46 | 1016.0 |
| 20260502090830 | 21 | 233 | 16.1 | 22.5 | 0.00 | 0.00 | 0.00 | 46 | 1016.0 |
| 20260502090329 | 21 | 210 | 16.1 | 22.5 | 0.00 | 0.00 | 0.00 | 46 | 1016.0 |
| 20260502071320 | 16 | 221 | 22.5 | 29.0 | 0.00 | 0.00 | 0.00 | 57 | 1016.8 |
| 20260502070819 | 16 | 157 | 17.7 | 25.7 | 0.00 | 0.00 | 0.00 | 56 | 1016.8 |
| 20260502070318 | 16 | 182 | 11.3 | 27.4 | 0.00 | 0.00 | 0.00 | 60 | 1016.8 |
| 20260502065817 | 16 | 188 | 12.9 | 27.4 | 0.00 | 0.00 | 0.00 | 58 | 1016.9 |
| 20260502065318 | 16 | 192 | 20.9 | 27.4 | 0.00 | 0.00 | 0.00 | 58 | 1016.8 |
| 20260502064819 | 16 | 192 | 16.1 | 24.1 | 0.00 | 0.00 | 0.00 | 58 | 1016.9 |
| 20260502064318 | 15 | 186 | 12.9 | 24.1 | 0.00 | 0.00 | 0.00 | 61 | 1016.8 |
| 20260502063813 | 15 | 200 | 14.5 | 24.1 | 0.00 | 0.00 | 0.00 | 61 | 1016.8 |
| 20260502063315 | 15 | 193 | 11.3 | 24.1 | 0.00 | 0.00 | 0.00 | 62 | 1017.0 |
| 20260502062815 | 15 | 192 | 11.3 | 20.9 | 0.00 | 0.00 | 0.00 | 64 | 1016.9 |
| 20260502062314 | 14 | 183 | 11.3 | 20.9 | 0.00 | 0.00 | 0.00 | 64 | 1016.9 |
| 20260502061814 | 14 | 186 | 8.0 | 20.9 | 0.00 | 0.00 | 0.00 | 66 | 1016.8 |
| 20260502061314 | 14 | 202 | 8.0 | 17.7 | 0.00 | 0.00 | 0.00 | 65 | 1017.0 |
| 20260502060814 | 13 | 162 | 8.0 | 17.7 | 0.00 | 0.00 | 0.00 | 66 | 1017.0 |
| 20260502060313 | 13 | 133 | 6.4 | 17.7 | 0.00 | 0.00 | 0.00 | 66 | 1017.1 |
| 20260502055813 | 13 | 154 | 6.4 | 17.7 | 0.00 | 0.00 | 0.00 | 67 | 1017.1 |
| 20260502055313 | 13 | 180 | 6.4 | 16.1 | 0.00 | 0.00 | 0.00 | 67 | 1017.0 |
| 20260502054813 | 13 | 173 | 4.8 | 14.5 | 0.00 | 0.00 | 0.00 | 68 | 1017.1 |
| 20260502054313 | 12 | 155 | 4.8 | 14.5 | 0.00 | 0.00 | 0.00 | 69 | 1017.1 |
| 20260502053813 | 12 | 161 | 6.4 | 14.5 | 0.00 | 0.00 | 0.00 | 69 | 1017.2 |
| 20260502053312 | 12 | 179 | 6.4 | 14.5 | 0.00 | 0.00 | 0.00 | 71 | 1017.1 |
| 20260502052810 | 12 | 182 | 6.4 | 11.3 | 0.00 | 0.00 | 0.00 | 72 | 1017.2 |
| 20260502052312 | 11 | 158 | 6.4 | 11.3 | 0.00 | 0.00 | 0.00 | 73 | 1017.3 |
| 20260502051809 | 11 | 168 | 6.4 | 16.1 | 0.00 | 0.00 | 0.00 | 73 | 1017.2 |
| 20260502051311 | 11 | 162 | 8.0 | 16.1 | 0.00 | 0.00 | 0.00 | 73 | 1017.3 |
| 20260502050806 | 11 | 172 | 6.4 | 11.3 | 0.00 | 0.00 | 0.00 | 73 | 1017.2 |
| 20260502050307 | 11 | 161 | 4.8 | 11.3 | 0.00 | 0.00 | 0.00 | 73 | 1017.2 |
| 20260502045806 | 11 | 169 | 4.8 | 11.3 | 0.00 | 0.00 | 0.00 | 74 | 1017.3 |
| 20260502045307 | 10 | 183 | 6.4 | 11.3 | 0.00 | 0.00 | 0.00 | 74 | 1017.2 |
| 20260502044807 | 10 | 169 | 4.8 | 11.3 | 0.00 | 0.00 | 0.00 | 77 | 1017.3 |
| 20260502044306 | 10 | 169 | 4.8 | 11.3 | 0.00 | 0.00 | 0.00 | 79 | 1017.2 |
| 20260502043803 | 10 | 157 | 3.2 | 9.7 | 0.00 | 0.00 | 0.00 | 80 | 1017.1 |
| 20260502043303 | 10 | 149 | 4.8 | 8.0 | 0.00 | 0.00 | 0.00 | 80 | 1017.2 |
| 20260502042804 | 10 | 147 | 3.2 | 4.8 | 0.00 | 0.00 | 0.00 | 80 | 1017.1 |
| 20260502042306 | 10 | 138 | 3.2 | 9.7 | 0.00 | 0.00 | 0.00 | 80 | 1017.2 |
| 20260502041804 | 10 | 142 | 1.6 | 9.7 | 0.00 | 0.00 | 0.00 | 80 | 1017.2 |
| 20260502041302 | 10 | 145 | 3.2 | 6.4 | 0.00 | 0.00 | 0.00 | 80 | 1017.3 |
| 20260502040802 | 10 | 144 | 3.2 | 6.4 | 0.00 | 0.00 | 0.00 | 80 | 1017.3 |
| 20260502040302 | 10 | 130 | 3.2 | 6.4 | 0.00 | 0.00 | 0.00 | 79 | 1017.4 |
| 20260502035802 | 10 | 135 | 3.2 | 6.4 | 0.00 | 0.00 | 0.00 | 79 | 1017.4 |
| 20260502035306 | 10 | 148 | 3.2 | 6.4 | 0.00 | 0.00 | 0.00 | 79 | 1017.4 |
| 20260502034801 | 10 | 145 | 4.8 | 6.4 | 0.00 | 0.00 | 0.00 | 79 | 1017.5 |
| 20260502034301 | 10 | 145 | 3.2 | 6.4 | 0.00 | 0.00 | 0.00 | 78 | 1017.5 |
| 20260502033802 | 10 | 149 | 3.2 | 8.0 | 0.00 | 0.00 | 0.00 | 79 | 1017.5 |
| 20260502033301 | 10 | 141 | 3.2 | 8.0 | 0.00 | 0.00 | 0.00 | 79 | 1017.5 |
| 20260502032802 | 10 | 154 | 4.8 | 9.7 | 0.00 | 0.00 | 0.00 | 79 | 1017.5 |
| 20260502032306 | 10 | 145 | 4.8 | 9.7 | 0.00 | 0.00 | 0.00 | 79 | 1017.6 |
| 20260502031801 | 10 | 152 | 4.8 | 9.7 | 0.00 | 0.00 | 0.00 | 79 | 1017.6 |
| 20260502031302 | 10 | 148 | 4.8 | 9.7 | 0.00 | 0.00 | 0.00 | 80 | 1017.7 |
| 20260502030801 | 10 | 144 | 3.2 | 11.3 | 0.00 | 0.00 | 0.00 | 79 | 1017.6 |
| 20260502030302 | 10 | 133 | 6.4 | 11.3 | 0.00 | 0.00 | 0.00 | 80 | 1017.8 |
| 20260502025802 | 10 | 148 | 4.8 | 8.0 | 0.00 | 0.00 | 0.00 | 80 | 1017.8 |
| 20260502025302 | 10 | 134 | 4.8 | 8.0 | 0.00 | 0.00 | 0.00 | 79 | 1017.8 |
| 20260502024801 | 10 | 149 | 4.8 | 8.0 | 0.00 | 0.00 | 0.00 | 79 | 1017.9 |
| 20260502024301 | 10 | 138 | 3.2 | 8.0 | 0.00 | 0.00 | 0.00 | 79 | 1017.9 |
| 20260502023801 | 10 | 142 | 4.8 | 8.0 | 0.00 | 0.00 | 0.00 | 80 | 1017.9 |
| 20260502023302 | 10 | 145 | 3.2 | 8.0 | 0.00 | 0.00 | 0.00 | 79 | 1018.0 |
| 20260502022802 | 10 | 131 | 3.2 | 8.0 | 0.00 | 0.00 | 0.00 | 79 | 1018.0 |
| 20260502022301 | 10 | 147 | 3.2 | 6.4 | 0.00 | 0.00 | 0.00 | 78 | 1018.1 |
| 20260502021801 | 10 | 152 | 3.2 | 6.4 | 0.00 | 0.00 | 0.00 | 77 | 1018.1 |
| 20260502021301 | 10 | 144 | 3.2 | 6.4 | 0.00 | 0.00 | 0.00 | 76 | 1018.2 |
| 20260502020801 | 10 | 152 | 3.2 | 6.4 | 0.00 | 0.00 | 0.00 | 76 | 1018.3 |
| 20260502020302 | 10 | 145 | 3.2 | 8.0 | 0.00 | 0.00 | 0.00 | 76 | 1018.3 |
| 20260502015801 | 10 | 128 | 3.2 | 8.0 | 0.00 | 0.00 | 0.00 | 75 | 1018.3 |
| 20260502015305 | 11 | 138 | 4.8 | 6.4 | 0.00 | 0.00 | 0.00 | 75 | 1018.3 |
| 20260502014759 | 11 | 151 | 3.2 | 6.4 | 0.00 | 0.00 | 0.00 | 75 | 1018.5 |
| 20260502014257 | 11 | 145 | 3.2 | 8.0 | 0.00 | 0.00 | 0.00 | 75 | 1018.4 |
| 20260502013754 | 11 | 151 | 3.2 | 8.0 | 0.00 | 0.00 | 0.00 | 75 | 1018.5 |
| 20260502013253 | 11 | 141 | 3.2 | 8.0 | 0.00 | 0.00 | 0.00 | 75 | 1018.6 |
| 20260502012753 | 11 | 133 | 3.2 | 8.0 | 0.00 | 0.00 | 0.00 | 74 | 1018.7 |
| 20260502012252 | 11 | 144 | 3.2 | 6.4 | 0.00 | 0.00 | 0.00 | 74 | 1018.8 |
| 20260502011751 | 11 | 147 | 3.2 | 6.4 | 0.00 | 0.00 | 0.00 | 73 | 1018.9 |
| 20260502011251 | 11 | 144 | 3.2 | 4.8 | 0.00 | 0.00 | 0.00 | 73 | 1018.9 |
| 20260502010751 | 11 | 145 | 3.2 | 4.8 | 0.00 | 0.00 | 0.00 | 72 | 1018.9 |
| 20260502010250 | 11 | 145 | 1.6 | 4.8 | 0.00 | 0.00 | 0.00 | 72 | 1019.0 |
| 20260502005751 | 11 | 148 | 3.2 | 4.8 | 0.00 | 0.00 | 0.00 | 72 | 1019.1 |
| 20260502005248 | 11 | 144 | 1.6 | 4.8 | 0.00 | 0.00 | 0.00 | 71 | 1019.2 |
| 20260502004748 | 12 | 172 | 1.6 | 4.8 | 0.00 | 0.00 | 0.00 | 71 | 1019.2 |
| 20260502004249 | 12 | 157 | 3.2 | 4.8 | 0.00 | 0.00 | 0.00 | 70 | 1019.2 |
| 20260502003748 | 12 | 141 | 3.2 | 4.8 | 0.00 | 0.00 | 0.00 | 70 | 1019.2 |
| 20260502003249 | 12 | 159 | 3.2 | 6.4 | 0.00 | 0.00 | 0.00 | 69 | 1019.3 |
| 20260502002748 | 12 | 155 | 3.2 | 6.4 | 0.00 | 0.00 | 0.00 | 69 | 1019.3 |
| 20260502002245 | 12 | 166 | 1.6 | 4.8 | 0.00 | 0.00 | 0.00 | 69 | 1019.4 |
| 20260502001744 | 12 | 192 | 3.2 | 4.8 | 0.00 | 0.00 | 0.00 | 69 | 1019.4 |
| 20260502001243 | 12 | 178 | 1.6 | 6.4 | 0.00 | 0.00 | 0.00 | 68 | 1019.4 |
| 20260502000742 | 12 | 155 | 3.2 | 6.4 | 0.00 | 0.00 | 0.00 | 66 | 1019.5 |
| 20260502000242 | 13 | 162 | 1.6 | 8.0 | 0.00 | 0.00 | 0.00 | 63 | 1019.5 |
| 20260501235741 | 13 | 141 | 4.8 | 11.3 | 0.00 | 0.00 | 0.00 | 63 | 1019.5 |
| 20260501235241 | 13 | 151 | 4.8 | 11.3 | 0.00 | 0.00 | 0.00 | 63 | 1019.5 |
| 20260501234741 | 13 | 135 | 4.8 | 9.7 | 0.00 | 0.00 | 0.00 | 63 | 1019.6 |
| 20260501234240 | 13 | 148 | 4.8 | 14.5 | 0.00 | 0.00 | 0.00 | 63 | 1019.5 |
| 20260501233738 | 13 | 154 | 8.0 | 17.7 | 0.00 | 0.00 | 0.00 | 63 | 1019.6 |
| 20260501233238 | 13 | 104 | 4.8 | 17.7 | 0.00 | 0.00 | 0.00 | 64 | 1019.5 |
| 20260501232738 | 13 | 116 | 6.4 | 17.7 | 0.00 | 0.00 | 0.00 | 63 | 1019.7 |
| 20260501232238 | 13 | 107 | 6.4 | 14.5 | 0.00 | 0.00 | 0.00 | 63 | 1019.6 |
| 20260501231738 | 13 | 120 | 4.8 | 14.5 | 0.00 | 0.00 | 0.00 | 62 | 1019.5 |
| 20260501231238 | 13 | 133 | 8.0 | 14.5 | 0.00 | 0.00 | 0.00 | 62 | 1019.7 |
| 20260501230738 | 13 | 137 | 6.4 | 14.5 | 0.00 | 0.00 | 0.00 | 63 | 1019.6 |
| 20260501230239 | 13 | 99 | 4.8 | 14.5 | 0.00 | 0.00 | 0.00 | 63 | 1019.6 |
| 20260501225739 | 13 | 157 | 6.4 | 14.5 | 0.00 | 0.00 | 0.00 | 62 | 1019.6 |
| 20260501225239 | 13 | 125 | 3.2 | 14.5 | 0.00 | 0.00 | 0.00 | 62 | 1019.7 |
| 20260501224736 | 13 | 131 | 4.8 | 14.5 | 0.00 | 0.00 | 0.00 | 63 | 1019.8 |
| 20260501224238 | 13 | 116 | 4.8 | 14.5 | 0.00 | 0.00 | 0.00 | 62 | 1019.8 |
| 20260501223737 | 13 | 107 | 4.8 | 16.1 | 0.00 | 0.00 | 0.00 | 64 | 1019.9 |
| 20260501223247 | 14 | 165 | 4.8 | 16.1 | 0.00 | 0.00 | 0.00 | 64 | 1019.9 |
| 20260501222743 | 14 | 135 | 4.8 | 16.1 | 0.00 | 0.00 | 0.00 | 63 | 1019.9 |
| 20260501222244 | 14 | 161 | 3.2 | 16.1 | 0.00 | 0.00 | 0.00 | 64 | 1019.9 |
| 20260501221741 | 14 | 104 | 4.8 | 11.3 | 0.00 | 0.00 | 0.00 | 61 | 1019.9 |
| 20260501221239 | 14 | 83 | 4.8 | 11.3 | 0.00 | 0.00 | 0.00 | 63 | 1019.9 |
| 20260501220739 | 14 | 109 | 6.4 | 14.5 | 0.00 | 0.00 | 0.00 | 61 | 1020.0 |
| 20260501220238 | 14 | 110 | 4.8 | 14.5 | 0.00 | 0.00 | 0.00 | 62 | 1020.1 |
| 20260501215741 | 14 | 131 | 4.8 | 14.5 | 0.00 | 0.00 | 0.00 | 63 | 1020.1 |
| 20260501215235 | 14 | 114 | 6.4 | 14.5 | 0.00 | 0.00 | 0.00 | 64 | 1020.1 |
| 20260501214736 | 14 | 120 | 6.4 | 11.3 | 0.00 | 0.00 | 0.00 | 63 | 1020.1 |
| 20260501214234 | 14 | 102 | 3.2 | 11.3 | 0.00 | 0.00 | 0.00 | 62 | 1020.1 |
| 20260501213732 | 14 | 140 | 4.8 | 11.3 | 0.00 | 0.00 | 0.00 | 64 | 1020.2 |
| 20260501213233 | 14 | 121 | 4.8 | 14.5 | 0.00 | 0.00 | 0.00 | 61 | 1020.2 |
| 20260501212731 | 14 | 109 | 4.8 | 14.5 | 0.00 | 0.00 | 0.00 | 59 | 1020.2 |
| 20260501212230 | 15 | 97 | 4.8 | 11.3 | 0.00 | 0.00 | 0.00 | 62 | 1020.2 |
| 20260501211731 | 15 | 99 | 6.4 | 14.5 | 0.00 | 0.00 | 0.00 | 59 | 1020.4 |
| 20260501211230 | 15 | 118 | 4.8 | 14.5 | 0.00 | 0.00 | 0.00 | 60 | 1020.4 |
| 20260501210730 | 15 | 104 | 6.4 | 11.3 | 0.00 | 0.00 | 0.00 | 59 | 1020.3 |
| 20260501210229 | 15 | 120 | 4.8 | 8.0 | 0.00 | 0.00 | 0.00 | 60 | 1020.3 |
| 20260501205729 | 15 | 82 | 4.8 | 8.0 | 0.00 | 0.00 | 0.00 | 62 | 1020.4 |
| 20260501205229 | 15 | 82 | 4.8 | 11.3 | 0.00 | 0.00 | 0.00 | 62 | 1020.4 |
| 20260501204730 | 15 | 107 | 6.4 | 11.3 | 0.00 | 0.00 | 0.00 | 60 | 1020.3 |
| 20260501204229 | 15 | 110 | 4.8 | 11.3 | 0.00 | 0.00 | 0.00 | 58 | 1020.5 |
| 20260501203730 | 15 | 93 | 4.8 | 9.7 | 0.00 | 0.00 | 0.00 | 58 | 1020.5 |
| 20260501203229 | 15 | 109 | 4.8 | 11.3 | 0.00 | 0.00 | 0.00 | 57 | 1020.5 |
| 20260501202729 | 15 | 120 | 6.4 | 11.3 | 0.00 | 0.00 | 0.00 | 57 | 1020.5 |
| 20260501202229 | 15 | 92 | 3.2 | 9.7 | 0.00 | 0.00 | 0.00 | 56 | 1020.6 |
| 20260501201729 | 15 | 123 | 6.4 | 9.7 | 0.00 | 0.00 | 0.00 | 57 | 1020.7 |
| 20260501201228 | 16 | 114 | 6.4 | 9.7 | 0.00 | 0.00 | 0.00 | 56 | 1020.7 |
| 20260501200728 | 16 | 138 | 6.4 | 9.7 | 0.00 | 0.00 | 0.00 | 57 | 1020.8 |
| 20260501200227 | 16 | 116 | 3.2 | 8.0 | 0.00 | 0.00 | 0.00 | 57 | 1020.8 |
| 20260501195731 | 16 | 92 | 3.2 | 11.3 | 0.00 | 0.00 | 0.00 | 55 | 1020.8 |
| 20260501195229 | 16 | 109 | 4.8 | 11.3 | 0.00 | 0.00 | 0.00 | 55 | 1020.8 |
| 20260501194727 | 16 | 151 | 4.8 | 9.7 | 0.00 | 0.00 | 0.00 | 56 | 1020.9 |
| 20260501194226 | 16 | 111 | 4.8 | 8.0 | 0.00 | 0.00 | 0.00 | 57 | 1020.8 |
| 20260501193727 | 16 | 113 | 3.2 | 8.0 | 0.00 | 0.00 | 0.00 | 57 | 1020.9 |
| 20260501193227 | 16 | 99 | 3.2 | 8.0 | 0.00 | 0.00 | 0.00 | 56 | 1021.0 |
| 20260501192724 | 17 | 117 | 3.2 | 8.0 | 0.00 | 0.00 | 0.00 | 54 | 1020.9 |
| 20260501192223 | 17 | 134 | 3.2 | 8.0 | 0.00 | 0.00 | 0.00 | 62 | 1021.0 |
| 20260501191723 | 17 | 123 | 4.8 | 8.0 | 0.00 | 0.00 | 0.00 | 56 | 1021.0 |
| 20260501191223 | 18 | 137 | 3.2 | 6.4 | 0.00 | 0.00 | 0.00 | 60 | 1020.9 |
| 20260501190724 | 18 | 140 | 3.2 | 8.0 | 0.00 | 0.00 | 0.00 | 59 | 1020.9 |
| 20260501190222 | 18 | 135 | 4.8 | 11.3 | 0.00 | 0.00 | 0.00 | 49 | 1021.0 |
| 20260501185721 | 18 | 152 | 4.8 | 11.3 | 0.00 | 0.00 | 0.00 | 48 | 1020.9 |
| 20260501185220 | 18 | 133 | 3.2 | 11.3 | 0.00 | 0.00 | 0.00 | 49 | 1020.9 |
| 20260501184718 | 19 | 152 | 4.8 | 9.7 | 0.00 | 0.00 | 0.00 | 48 | 1020.9 |
| 20260501184218 | 19 | 134 | 4.8 | 8.0 | 0.00 | 0.00 | 0.00 | 48 | 1020.9 |
| 20260501183720 | 20 | 125 | 4.8 | 8.0 | 0.00 | 0.00 | 0.00 | 46 | 1021.0 |
| 20260501183216 | 20 | 142 | 3.2 | 11.3 | 0.00 | 0.00 | 0.00 | 44 | 1020.8 |
| 20260501182716 | 20 | 118 | 4.8 | 11.3 | 0.00 | 0.00 | 0.00 | 43 | 1020.9 |
| 20260501182216 | 21 | 109 | 6.4 | 20.9 | 0.00 | 0.00 | 0.00 | 42 | 1020.7 |
| 20260501181711 | 21 | 134 | 6.4 | 20.9 | 0.00 | 0.00 | 0.00 | 41 | 1020.7 |
| 20260501181210 | 21 | 116 | 6.4 | 19.3 | 0.00 | 0.00 | 0.00 | 41 | 1020.7 |
| 20260501180708 | 21 | 130 | 8.0 | 19.3 | 0.00 | 0.00 | 0.00 | 41 | 1020.6 |
| 20260501180210 | 21 | 114 | 6.4 | 17.7 | 0.00 | 0.00 | 0.00 | 44 | 1020.7 |
| 20260501175708 | 21 | 97 | 6.4 | 19.3 | 0.00 | 0.00 | 0.00 | 41 | 1020.7 |
| 20260501175208 | 21 | 148 | 8.0 | 19.3 | 0.00 | 0.00 | 0.00 | 42 | 1020.7 |
| 20260501174705 | 21 | 149 | 4.8 | 17.7 | 0.00 | 0.00 | 0.00 | 41 | 1020.9 |
| 20260501174205 | 21 | 148 | 3.2 | 17.7 | 0.00 | 0.00 | 0.00 | 40 | 1020.9 |
| 20260501173705 | 21 | 128 | 6.4 | 17.7 | 0.00 | 0.00 | 0.00 | 40 | 1021.0 |
| 20260501173208 | 22 | 142 | 3.2 | 16.1 | 0.00 | 0.00 | 0.00 | 39 | 1021.0 |
| 20260501172705 | 22 | 124 | 6.4 | 19.3 | 0.00 | 0.00 | 0.00 | 37 | 1021.0 |
| 20260501172204 | 22 | 144 | 9.7 | 24.1 | 0.00 | 0.00 | 0.00 | 38 | 1021.0 |
| 20260501171703 | 22 | 113 | 6.4 | 24.1 | 0.00 | 0.00 | 0.00 | 37 | 1021.0 |
| 20260501171203 | 22 | 113 | 8.0 | 20.9 | 0.00 | 0.00 | 0.00 | 36 | 1021.0 |
| 20260501170703 | 22 | 138 | 8.0 | 22.5 | 0.00 | 0.00 | 0.00 | 36 | 1021.0 |
| 20260501170203 | 22 | 99 | 6.4 | 22.5 | 0.00 | 0.00 | 0.00 | 35 | 1021.1 |
| 20260501165704 | 22 | 110 | 6.4 | 24.1 | 0.00 | 0.00 | 0.00 | 35 | 1021.2 |
| 20260501165203 | 22 | 154 | 9.7 | 24.1 | 0.00 | 0.00 | 0.00 | 35 | 1021.2 |
| 20260501164703 | 22 | 102 | 11.3 | 24.1 | 0.00 | 0.00 | 0.00 | 36 | 1021.3 |
| 20260501164202 | 22 | 149 | 9.7 | 32.2 | 0.00 | 0.00 | 0.00 | 35 | 1021.3 |